Saint Francisville, IL

3:46 AM CST on February 11, 2016 (GMT -0600)
Mount Carmel Municipal

Weather History for KAJG - February, 2013

Change the Weather History Date:

Tuesday, February 26, 2013

  Actual Average (KLWV) Record (KLWV)
Temperature  
Mean Temperature 44 °F 39 °F  
Max Temperature 50 °F 48 °F 68 °F (1998)
Min Temperature 39 °F 30 °F 11 °F (2014)
Degree Days  
Heating Degree Days 20 26  
Month to date heating degree days 774  
Since 1 July heating degree days 3625  
Cooling Degree Days 0 0  
Month to date cooling degree days 0  
Year to date cooling degree days 0  
Moisture  
Dew Point 39 °F    
Average Humidity 85    
Maximum Humidity 100    
Minimum Humidity 57    
Precipitation  
Precipitation 0.58 in 0.06 in 1.87 in (1979)
Month to date precipitation 1.89  
Year to date precipitation 4.27  
Sea Level Pressure  
Sea Level Pressure 29.46 in    
Wind  
Wind Speed 15 mph (SE)    
Max Wind Speed 22 mph    
Max Gust Speed 26 mph    
Visibility 9 miles    
Events Rain , Thunderstorm    
T = Trace of Precipitation, MM = Missing Value Source: NWS Daily Summary

Daily Weather History Graph

Daily Weather History Graph

Search for Another Location

Airport or City:

Trip Planner

Search our weather history database for the weather conditions in past years. The results will help you decide how hot, cold, wet, or windy it might be!

Date:

Astronomy

Feb. 26, 2013 Rise Set
Actual Time 6:26 AM CST 5:41 PM CST
Civil Twilight 6:00 AM CST 6:07 PM CST
Nautical Twilight 5:29 AM CST 6:38 PM CST
Astronomical Twilight 4:58 AM CST 7:09 PM CST
Moon 6:55 PM CST (2/26) 6:30 AM CST (2/26)
Length of Visible Light 12h 07m
Length of Day
11h 14m
Full, 99% of the Moon is Illuminated
Feb 26
Full
Mar 4
Last Quarter
Mar 11
New
Mar 19
First Quarter
Mar 27
Full

Hourly Weather History & Observations

Time (CST) Temp. Windchill Dew Point Humidity Pressure Visibility Wind Dir Wind Speed Gust Speed Precip Events Conditions
12:15 AM 42.8 °F 34.5 °F 28.4 °F 57% 29.65 in 10.0 mi East 18.4 mph 24.2 mph N/A   Overcast
12:35 AM 42.8 °F 34.5 °F 28.4 °F 57% 29.63 in 10.0 mi ENE 18.4 mph 26.5 mph N/A   Overcast
12:55 AM 42.8 °F 34.3 °F 28.4 °F 57% 29.60 in 10.0 mi ENE 19.6 mph 25.3 mph N/A   Overcast
1:15 AM 42.8 °F 34.8 °F 28.4 °F 57% 29.58 in 10.0 mi ENE 17.3 mph 21.9 mph N/A   Overcast
1:35 AM 42.8 °F 34.3 °F 28.4 °F 57% 29.57 in 10.0 mi ENE 19.6 mph 24.2 mph N/A   Overcast
1:55 AM 42.8 °F 34.5 °F 30.2 °F 61% 29.56 in 10.0 mi ENE 18.4 mph 24.2 mph N/A Rain Rain
2:15 AM 41.0 °F 34.3 °F 33.8 °F 76% 29.56 in 10.0 mi East 11.5 mph - 0.02 in Rain , Thunderstorm Thunderstorms and Rain
2:35 AM 41.0 °F 33.5 °F 33.8 °F 76% 29.54 in 3.0 mi ENE 13.8 mph - 0.08 in Rain , Thunderstorm Light Thunderstorms and Rain
2:55 AM 39.2 °F 30.5 °F 33.8 °F 81% 29.52 in 7.0 mi ENE 16.1 mph - 0.16 in Rain Light Rain
3:15 AM 39.2 °F 30.5 °F 35.6 °F 87% 29.51 in 5.0 mi ENE 16.1 mph 26.5 mph 0.05 in Rain Rain
3:35 AM 39.2 °F 30.2 °F 35.6 °F 87% 29.50 in 7.0 mi ENE 17.3 mph 26.5 mph 0.10 in Rain Rain
3:55 AM 39.2 °F 29.3 °F 35.6 °F 87% 29.48 in 5.0 mi ENE 20.7 mph 26.5 mph 0.15 in Rain , Thunderstorm Rain
4:15 AM 39.2 °F 30.5 °F 35.6 °F 87% 29.48 in 4.0 mi ENE 16.1 mph - 0.04 in Rain Rain
4:35 AM 39.2 °F 30.2 °F 37.4 °F 93% 29.48 in 5.0 mi East 17.3 mph 24.2 mph 0.10 in Rain Rain
4:55 AM 39.2 °F 29.6 °F 37.4 °F 93% 29.47 in 10.0 mi East 19.6 mph 24.2 mph 0.14 in Rain Light Rain
5:15 AM 41.0 °F 31.9 °F 37.4 °F 87% 29.46 in 10.0 mi East 19.6 mph 25.3 mph 0.01 in Rain Light Rain
5:35 AM 41.0 °F 32.2 °F 37.4 °F 87% 29.46 in 10.0 mi East 18.4 mph 24.2 mph 0.01 in Rain Light Rain
5:55 AM 41.0 °F 33.5 °F 37.4 °F 87% 29.45 in 10.0 mi East 13.8 mph - 0.01 in   Overcast
6:15 AM 41.0 °F 33.1 °F 37.4 °F 87% 29.44 in 7.0 mi East 15.0 mph - N/A Rain Light Rain
6:35 AM 41.0 °F 32.8 °F 37.4 °F 87% 29.43 in 7.0 mi East 16.1 mph - 0.02 in Rain Light Rain
6:55 AM 41.0 °F 33.1 °F 37.4 °F 87% 29.42 in 7.0 mi East 15.0 mph - 0.03 in Rain Rain
7:15 AM 41.0 °F 33.1 °F 37.4 °F 87% 29.43 in 7.0 mi East 15.0 mph 18.4 mph 0.01 in Rain Light Rain
7:35 AM 41.0 °F 33.5 °F 37.4 °F 87% 29.42 in 4.0 mi East 13.8 mph - 0.01 in   Overcast
7:55 AM 41.0 °F 32.8 °F 39.2 °F 93% 29.42 in 7.0 mi East 16.1 mph - 0.01 in   Overcast
8:15 AM 41.0 °F 33.1 °F 39.2 °F 93% 29.42 in 2.0 mi East 15.0 mph 24.2 mph 0.01 in   Overcast
8:35 AM 41.0 °F 33.1 °F 39.2 °F 93% 29.41 in 1.2 mi East 15.0 mph - 0.02 in Rain Light Rain
8:55 AM 41.0 °F 33.5 °F 41.0 °F 100% 29.40 in 1.2 mi East 13.8 mph - 0.03 in Rain Rain
9:15 AM 41.0 °F 35.2 °F 41.0 °F 100% 29.40 in 4.0 mi East 9.2 mph 12.7 mph 0.02 in Rain Light Rain
9:35 AM 42.8 °F 37.0 °F 41.0 °F 93% 29.41 in 10.0 mi East 10.4 mph - 0.03 in Rain Light Rain
9:55 AM 42.8 °F 37.0 °F 41.0 °F 93% 29.40 in 10.0 mi East 10.4 mph - 0.03 in   Overcast
10:15 AM 42.8 °F 38.0 °F 41.0 °F 93% 29.40 in 10.0 mi East 8.1 mph - N/A Rain Light Rain
10:35 AM 42.8 °F 38.0 °F 42.8 °F 100% 29.40 in 5.0 mi East 8.1 mph - 0.01 in Rain Light Rain
10:55 AM 44.6 °F 39.7 °F 42.8 °F 93% 29.39 in 10.0 mi East 9.2 mph - 0.01 in   Overcast
11:15 AM 44.6 °F 39.7 °F 42.8 °F 93% 29.39 in 10.0 mi East 9.2 mph - N/A Rain Light Rain
11:35 AM 44.6 °F 40.2 °F 42.8 °F 93% 29.38 in 10.0 mi ESE 8.1 mph - N/A   Overcast
11:55 AM 46.4 °F 42.4 °F 44.6 °F 93% 29.38 in 10.0 mi ESE 8.1 mph - N/A   Overcast
12:15 PM 46.4 °F 43.5 °F 44.6 °F 93% 29.38 in 10.0 mi ESE 5.8 mph - N/A   Overcast
12:35 PM 46.4 °F 44.3 °F 44.6 °F 93% 29.38 in 10.0 mi SE 4.6 mph - N/A   Overcast
12:55 PM 46.4 °F 44.3 °F 44.6 °F 93% 29.37 in 10.0 mi South 4.6 mph - N/A   Overcast
1:15 PM 48.2 °F - 46.4 °F 93% 29.37 in 10.0 mi SW 6.9 mph - N/A   Overcast
1:35 PM 50.0 °F - 46.4 °F 87% 29.37 in 10.0 mi WSW 8.1 mph - N/A   Overcast
1:55 PM 50.0 °F - 44.6 °F 82% 29.37 in 10.0 mi WSW 11.5 mph - N/A   Mostly Cloudy
2:15 PM 50.0 °F - 44.6 °F 82% 29.37 in 10.0 mi SW 9.2 mph - N/A   Light Drizzle
2:35 PM 50.0 °F - 44.6 °F 82% 29.38 in 10.0 mi WSW 10.4 mph - N/A   Overcast
2:55 PM 50.0 °F - 44.6 °F 82% 29.39 in 10.0 mi WSW 10.4 mph - N/A   Overcast
3:15 PM 48.2 °F - 42.8 °F 82% 29.40 in 7.0 mi SSW 10.4 mph - 0.01 in Rain Light Rain
3:35 PM 48.2 °F - 42.8 °F 82% 29.41 in 10.0 mi WSW 13.8 mph - 0.01 in   Overcast
3:55 PM 46.4 °F 39.5 °F 42.8 °F 87% 29.42 in 10.0 mi WSW 17.3 mph 25.3 mph 0.01 in Rain Light Rain
4:15 PM 46.4 °F 40.7 °F 41.0 °F 81% 29.42 in 10.0 mi West 12.7 mph 20.7 mph N/A   Overcast
4:35 PM 46.4 °F 41.9 °F 42.8 °F 87% 29.43 in 10.0 mi WSW 9.2 mph - N/A   Overcast
4:55 PM 46.4 °F 42.9 °F 42.8 °F 87% 29.44 in 10.0 mi WSW 6.9 mph - N/A   Overcast
5:15 PM 46.4 °F 42.9 °F 42.8 °F 87% 29.45 in 10.0 mi WSW 6.9 mph - N/A   Overcast
5:35 PM 46.4 °F 42.4 °F 41.0 °F 81% 29.46 in 10.0 mi SW 8.1 mph - N/A   Overcast
5:55 PM 44.6 °F 39.2 °F 41.0 °F 87% 29.47 in 10.0 mi WSW 10.4 mph - N/A   Overcast
6:15 PM 44.6 °F 39.2 °F 41.0 °F 87% 29.47 in 10.0 mi SW 10.4 mph - N/A   Overcast
6:35 PM 44.6 °F 39.7 °F 41.0 °F 87% 29.48 in 10.0 mi SW 9.2 mph - N/A   Light Drizzle
6:55 PM 44.6 °F 38.8 °F 41.0 °F 87% 29.48 in 10.0 mi SW 11.5 mph - N/A   Overcast
7:15 PM 44.6 °F 38.4 °F 39.2 °F 81% 29.49 in 10.0 mi SSW 12.7 mph - N/A   Overcast
7:35 PM 44.6 °F 38.4 °F 39.2 °F 81% 29.50 in 10.0 mi SW 12.7 mph - N/A   Overcast
7:55 PM 42.8 °F 36.2 °F 39.2 °F 87% 29.51 in 10.0 mi SW 12.7 mph - N/A   Overcast
8:15 PM 42.8 °F 37.0 °F 39.2 °F 87% 29.51 in 10.0 mi SW 10.4 mph - N/A   Overcast
8:35 PM 42.8 °F 36.2 °F 37.4 °F 81% 29.52 in 10.0 mi SW 12.7 mph 23.0 mph N/A   Overcast
8:55 PM 42.8 °F 35.8 °F 37.4 °F 81% 29.53 in 10.0 mi SW 13.8 mph - N/A   Overcast
9:15 PM 42.8 °F 35.4 °F 37.4 °F 81% 29.53 in 10.0 mi SW 15.0 mph - N/A   Overcast
9:35 PM 42.8 °F 35.8 °F 37.4 °F 81% 29.53 in 10.0 mi SSW 13.8 mph 20.7 mph N/A   Overcast
9:55 PM 42.8 °F 35.4 °F 37.4 °F 81% 29.54 in 10.0 mi SW 15.0 mph 18.4 mph N/A   Overcast
10:15 PM 42.8 °F 35.4 °F 37.4 °F 81% 29.54 in 7.0 mi SW 15.0 mph 19.6 mph N/A Rain Light Rain
10:55 PM 41.0 °F 33.9 °F 39.2 °F 93% 29.55 in 7.0 mi SW 12.7 mph 18.4 mph N/A Rain Light Rain
11:15 PM 42.8 °F 33.8 °F 39.2 °F 87% 29.56 in 10.0 mi West 21.9 mph - N/A   Overcast
11:35 PM 41.0 °F 31.9 °F 37.4 °F 87% 29.57 in 10.0 mi West 19.6 mph 24.2 mph N/A   Overcast
11:55 PM 41.0 °F 32.2 °F 37.4 °F 87% 29.58 in 10.0 mi West 18.4 mph - N/A   Overcast